User: anonymous   Login
Location: Paderno d�Adda
(45.6667°N, 9.4333°E)
Time: 00:33:15
(UTC+00:00)
Language:

CREW DRAGON DEMO-1 DEB - Orbit

View from above orbital plane
View from above orbital plane
View from above satellite
View from above satellite

Ground track
Ground track

The orbit data is extracted from the following two-line orbital elements,

1 44064U 19011B   20336.52958453 +.00042018 +00000-0 +32962-3 0  9995
2 44064 051.6304 183.0052 0001222 301.1979 058.8899 15.71110408099110
Epoch (UTC): 01 December 2020 12:42:36
Eccentricity: 0.0001222
inclination: 51.6304°
perigee height: 355 km
apogee height: 356 km
right ascension of ascending node: 183.0052°
argument of perigee: 301.1979°
revolutions per day: 15.71110408
mean anomaly at epoch: 58.8899°
orbit number at epoch: 9911

The dashed part of the orbit path shows where the satellite is in the earth's shadow,  

DLR